THOR ABLESTAR DEB, 148

Orbit data source: Space-Track

THOR ABLESTAR DEB, 148 is space debris in LEO originally from a launch on Thu, 29 Jun 1961 UTC launched from the Air Force Eastern Test Range (AFETR). Debris objects in space refer to the collection of defunct objects orbiting the Earth. Examples of debris include non-operational satellites, rocket bodies, and fragments generated from explosions, collisions, or faulty payload assembly.

Loading next visibility...
Identifier
148, 1961-015AJ
Orbit
LEO
Country
Flag of USUS
Related business
Manufacturer
Unknown
Mission
Spacecraft
Bus & Motor
Unknown
Mass
Unknown
Launch date (UTC)
1961-06-29 (65 years ago)
Launch vehicle
Unknown
Launch site
Air Force Eastern Test Range (AFETR)
Object type
Payload
Rocket body
Debris
Shape & HBR
Unknown shape, 0.1 m
Radar Cross Section
Medium (>0.1 m² and <1 m²)

Expand to show TLE details & history
Last TLE update: 14 hours ago

TLE from 14 hours ago
0 THOR ABLESTAR DEB
1   148U 61015AJ  26036.57161595  .00001041  00000-0  57891-3 0  9991
2   148  65.7713 100.2828 0138275  25.4307 335.3492 14.10540194740416
Epoch: 2026-02-05T13:43Z
TLE epoch observation values (Epoch: 2026-02-05T13:43:07.618Z)
Latitude
-0.00003°
Longitude
118.77911°
Altitude
768.841 km
Speed
7.517 km/s
True Right ascension
06h 41m 07s
True Declination
0° 00' 00"
Sunlit
Object was in full shadow at epoch
Visualization orbit readout
Latitude
Unknown
Longitude
Unknown
Altitude
Unknown
Speed
Unknown
Apparent Right ascension
Unknown
Apparent Declination
Unknown
Sunlit
N/A
Visualization observer readout
Local Sidereal Time
05:41:26
Azimuth
Unknown
Elevation
Unknown
Doppler factor
Unknown
Orbital elements
Apogee altitude
956.053 km
Perigee altitude
755.992 km
Semi-major axis
7,234.159 km
Eccentricity
0.01383
Inclination
65.7713°
RAAN
100.2828°
Arg. of periapsis
25.4307°
True anomaly
334.67779°
Mean anomaly
335.3492°
Eccentric anomaly
335.01456°
Mean motion
3.52745 °/min
Orbital period
102.06 mins
BSTAR
0.00057891
Loading maneuver chart data...
Computing Atmospheric mass density...

Documentation

Showing up to 5 results
|